Location: Makanda
(37.6176°N, 89.2090°W)
Time: 21:08:14
(UTC+00:00)

Cosmos 1553 Rocket - Pass Details

Date: 23 September 2019
Orbit: 941 x 1009 km, 82.9° (Epoch: 20 October)

Event Time Altitude Azimuth Distance (km) Brightness Sun altitude
Rises 09:40:10 0° 353° (N) 3,680 7.2 -25.1°
Reaches altitude 10° 09:42:43 10° 354° (N) 2,719 6.5 -24.6°
Maximum altitude 09:48:56 86° 82° (E) 965 3.9 -23.4°
Drops below altitude 10° 09:55:02 10° 173° (S) 2,661 6.2 -22.3°
Sets 09:57:30 0° 174° (S) 3,596 6.9 -21.8°
